Regional Weather Roundup
Issued by NWS

Home | Current Version | Previous Version | Graphics & Text | Print | Product List | Glossary On
Versions: 1 2 3 4 5 6 7 8 9 10 11 12 13 14 15 16 17 18 19 20 21 22 23 24 25 26 27
000
ASUS45 KCYS 170910
RWRWY

WYOMING REGIONAL WEATHER ROUNDUP
NATIONAL WEATHER SERVICE CHEYENNE WY
300 AM MDT TUE OCT 17 2017

NOTE:  "FAIR" INDICATES FEW OR NO CLOUDS BELOW 12,000 FEET
WITH NO SIGNIFICANT WEATHER AND/OR OBSTRUCTIONS TO VISIBILITY.

WYZ001-171000-
YELLOWSTONE NATIONAL PARK

CITY           SKY/WX    TMP DP  RH WIND       PRES   REMARKS
LK YELLOWSTONE   N/A     23  19  85 CALM      30.39F
W YELLOWSTONE  NOT AVBL

$$
WYZ002>013-054>058-071-098>099-171000-
NORTHERN WYOMING

CITY           SKY/WX    TMP DP  RH WIND       PRES   REMARKS
JACKSON        NOT AVBL
CODY           FAIR      57  15  19 W8G18     30.20R
GREYBULL       FAIR      37  27  67 S6        30.17F WCI  32
WORLAND        FAIR      35  31  85 CALM      30.18S
SHERIDAN       FAIR      36  25  64 S5        30.09F WCI  32
BUFFALO        FAIR      49  13  23 W8        30.14F
GILLETTE       FAIR      45  24  43 SE10      30.12F
HULETT         FAIR      41  27  56 SW7       30.12F
NEWCASTLE      FAIR      34  27  75 CALM      30.16F

$$
WYZ014>020-022>026-101>103-171000-
CENTRAL WYOMING

CITY           SKY/WX    TMP DP  RH WIND       PRES   REMARKS
BIG PINEY      FAIR      25  13  60 CALM      30.39S
PINEDALE       FAIR      21  16  79 NW8       30.40S WCI  12
DUBOIS         FAIR      36  14  41 NW20      30.31S WCI  25
LANDER         NOT AVBL
RIVERTON       FAIR      42  22  44 W12       30.23F
CASPER         FAIR      39  17  41 SW9       30.22S WCI  33
DOUGLAS        FAIR      29  22  75 CALM      30.20F

$$
WYZ021-027>030-104>119-171000-
SOUTHERN WYOMING

CITY           SKY/WX    TMP DP  RH WIND       PRES   REMARKS
EVANSTON       FAIR      43   4  19 S6        30.41S
KEMMERER       FAIR      32  12  43 NW3       30.41S
FORT BRIDGER   FAIR      46   0  15 W10       30.43S
ROCK SPRINGS   FAIR      43   2  18 SW13      30.37S
DIXON          FAIR      26  14  60 CALM      30.42S
RAWLINS        FAIR      45   7  21 W16       30.33S
SARATOGA       FAIR      32  12  43 E5        30.37S WCI  27
LARAMIE        FAIR      32  10  40 SE6       30.34R WCI  26
CHEYENNE       FAIR      39  13  34 W12       30.28R WCI  32
TORRINGTON     FAIR      33  23  66 S3        30.17F
PINE BLUFFS    FAIR      30  21  69 MISG      30.26S

$$




USA.gov is the U.S. government's official web portal to all federal, state and local government web resources and services.